Location: S�deilles
(46.7500°N, 6.9329°E)
Time: 16:05:48
(UTC+00:00)

CZ-2D R/B - Pass Details

Date: 08 March 2021
Orbit: 521 x 537 km, 97.4° (Epoch: 20 April)

Event Time Altitude Azimuth Distance (km) Brightness Sun altitude
Rises 17:54:59 0° 176° (S) 2,641 6.8 -5.4°
Reaches altitude 10° 17:57:05 10° 181° (S) 1,759 5.9 -5.8°
Maximum altitude 18:00:49 56° 260° (W) 632 4.1 -6.4°
Drops below altitude 10° 18:04:37 10° 339° (NNW) 1,783 6.2 -7.1°
Sets 18:06:46 0° 344° (NNW) 2,681 7.1 -7.4°
